Location: *
(50.8160°S, 176.0219°W)
Time: 02:21:06
(UTC+00:00)

Cosmos 2058 - Pass Details

Date: 19 May 2026
Orbit: 523 x 537 km, 82.5° (Epoch: 8 June)

Event Time Altitude Azimuth Distance (km) Brightness Sun altitude
Exits shadow 17:30:23 - 189° (S) 2,570 6.0 -16.9°
Reaches altitude 10° 17:32:10 10° 186° (S) 1,843 5.3 -16.6°
Maximum altitude 17:36:13 70° 102° (ESE) 589 3.1 -16.0°
Drops below altitude 10° 17:40:12 10° 17° (NNE) 1,811 5.8 -15.4°
Sets 17:42:20 0° 15° (NNE) 2,692 6.7 -15.0°
